Location: Egypt
(35.2429°N, 89.9254°W)
Time: 01:02:29
(UTC+00:00)

BlueWalker 3 - Visible Passes

Search period start: 06 October 2024 00:00
Search period end: 16 October 2024 00:00
Orbit: 473 x 485 km, 53.2° (Epoch: 05 October)

Date Brightness Start Highest point End Pass type
(mag) Time Alt. Az. Time Alt. Az. Time Alt. Az.
06 Oct 5.1 09:16:40 12° ENE 09:16:40 12° ENE 09:17:02 10° ENE visible
06 Oct 3.3 10:50:54 20° NW 10:51:39 22° NW 10:54:35 10° NNE visible
07 Oct 3.5 10:24:09 23° NNW 10:24:09 23° NNW 10:26:28 10° NNE visible
08 Oct 4.3 09:57:17 16° NNE 09:57:17 16° NNE 09:58:19 10° NNE visible
